[[{"header":{"parameterUnit":"m.s-1","parameterCategory":1,"la1":30.2991,"la2":30.254,"lo1":-89.0895,"lo2":-89.0444,"dy":0.0017,"dx":0.0017,"nx":28,"ny":28,"refTime":"2025-09-15T21:00:00:Z","depth":0,"parameterNumber":2,"parameterNumberName":"U-component_of_WINDS"},"data":[0,0,0,0,0,0,0,0,0,0,0,0,0,0,0,0,0,0,0,0,0,0,0,0,0,0,0,0,0,0,0,0,0,0,0,0,0,0,0,0,0,0,0,0,0,0,0,0,0,0,0,0,0,0,0,0,0,0,-0.6871,-0.6871,0,-0.6868,-0.6868,-0.6868,-0.6843,-0.6842,-0.6842,-0.6841,-0.684,-0.684,-0.6841,0,0,0,0,0,0,0,0,0,0,0,0,0,-0.6854,-0.6855,-0.6871,-0.6871,-0.6871,-0.6868,-0.6868,-0.6868,-0.6843,-0.6842,-0.6842,-0.6841,-0.6839,-0.684,-0.6841,0,0,0,0,0,0,0,0,0,0,0,0,0,-0.6858,-0.6855,-0.6871,-0.6858,-0.6857,-0.6868,-0.6868,-0.6868,-0.6843,-0.6842,-0.6841,-0.684,-0.6839,-0.684,-0.6841,-0.6865,0,0,-0.6843,-0.6844,0,0,0,0,0,0,0,0,-0.6858,-0.6858,-0.686,-0.6859,-0.6857,-0.6855,-0.6862,-0.6867,-0.6843,-0.6848,-0.6841,-0.684,-0.6845,-0.6846,-0.6847,-0.6865,-0.6865,-0.6843,-0.6844,-0.6844,-0.6844,0,0,0,0,0,0,0,-0.6857,-0.6858,-0.687,-0.686,-0.6858,-0.6852,-0.6852,-0.6863,-0.6852,-0.6848,-0.6846,-0.6846,-0.6845,-0.6847,-0.6847,-0.6865,-0.6843,-0.6844,-0.6845,-0.6845,-0.6903,-0.6904,0,0,0,0,0,0,-0.6859,-0.6858,-0.687,-0.687,-0.6855,-0.6853,-0.6853,-0.6857,-0.6852,-0.685,-0.6847,-0.6845,-0.6846,-0.6846,-0.6847,-0.6876,-0.6844,-0.6845,-0.6845,-0.6902,-0.6903,-0.6905,0,0,0,0,0,0,-0.6858,-0.686,-0.687,-0.6863,-0.6864,-0.6855,-0.6859,-0.6857,-0.6859,-0.6851,-0.6849,-0.6851,-0.6845,-0.6846,-0.6861,-0.6875,-0.6845,-0.6846,-0.6901,-0.6903,-0.6904,-0.6933,0,0,0,0,0,0,-0.6858,-0.686,-0.6869,-0.6864,-0.6865,-0.6884,-0.686,-0.6858,-0.6861,-0.6858,-0.6855,-0.6853,-0.6844,-0.686,-0.6862,-0.6876,-0.6847,-0.69,-0.6902,-0.6903,-0.6931,-0.6936,-0.694,0,0,0,0,0,-0.6858,-0.6877,-0.6869,-0.6871,-0.6875,-0.6884,-0.6885,-0.6874,-0.6862,-0.6871,-0.6866,-0.6853,-0.6873,-0.6862,-0.6864,-0.6878,-0.6899,-0.6901,-0.6903,-0.6929,-0.6935,-0.694,0,0,0,0,0,0,-0.6884,-0.6876,-0.6868,-0.6886,-0.6886,-0.688,-0.6891,-0.688,-0.6884,-0.6882,-0.6868,-0.6868,-0.6885,-0.6883,-0.687,-0.6902,-0.6884,-0.6887,-0.6903,-0.6908,-0.6912,-0.6913,-0.6847,0,0,0,0,0,-0.6892,-0.69,-0.6893,-0.691,-0.691,-0.6901,-0.6904,-0.6896,-0.6896,-0.6896,-0.6892,-0.6892,-0.6899,-0.6903,-0.6909,-0.693,-0.693,-0.6942,-0.6946,-0.695,-0.6953,-0.6965,-0.697,-0.6912,-0.6912,-0.6912,0,0,-0.6909,-0.6906,-0.6911,-0.6915,-0.6914,-0.6923,-0.6901,-0.6911,-0.6917,-0.6897,-0.6911,-0.6909,-0.6908,-0.6927,-0.6935,-0.6926,-0.6968,-0.6953,-0.6956,-0.6956,-0.6968,-0.6973,-0.6978,-0.6914,-0.6914,-0.6913,0,0,-0.6944,-0.6942,-0.6956,-0.6956,-0.6955,-0.6948,-0.6952,-0.6948,-0.6945,-0.6959,-0.6944,-0.6952,-0.6963,-0.6964,-0.6965,-0.7001,-0.699,-0.7004,-0.7027,-0.7039,-0.7043,-0.7047,-0.7061,-0.7066,-0.7006,-0.7006,-0.7006,0,-0.6965,-0.6978,-0.6965,-0.6976,-0.6979,-0.6961,-0.6976,-0.6976,-0.6977,-0.6979,-0.6968,-0.6983,-0.6981,-0.7,-0.7009,-0.7011,-0.7015,-0.7004,-0.7043,-0.7047,-0.7051,-0.7064,-0.7069,-0.7008,-0.7008,-0.7008,-0.7008,0,-0.7004,-0.7013,-0.7024,-0.7026,-0.7029,-0.7042,-0.7033,-0.7038,-0.7029,-0.7024,-0.7039,-0.7037,-0.7042,-0.7045,-0.7037,-0.7064,-0.7058,-0.7046,-0.7027,-0.7058,-0.707,-0.7075,-0.701,-0.701,-0.7009,-0.7009,0,0,-0.7056,-0.7051,-0.7055,-0.7056,-0.7053,-0.706,-0.7073,-0.7077,-0.7082,-0.7084,-0.7094,-0.7104,-0.7093,-0.7095,-0.7087,-0.7098,-0.7127,-0.7084,-0.7084,-0.7093,-0.7157,-0.7167,-0.7173,-0.7119,-0.712,-0.7121,-0.7158,0,-0.7091,-0.7111,-0.7101,-0.7123,-0.7131,-0.7114,-0.7125,-0.7125,-0.7121,-0.7128,-0.7123,-0.7131,-0.7115,-0.7116,-0.7126,-0.7122,-0.714,-0.7119,-0.713,-0.713,-0.7131,-0.7179,-0.7189,-0.7224,-0.7162,-0.7163,-0.7163,0,-0.7134,-0.7137,-0.716,-0.7157,-0.716,-0.717,-0.7174,-0.718,-0.718,-0.7176,-0.7179,-0.7168,-0.718,-0.7162,-0.7179,-0.7165,-0.7169,-0.7167,-0.7169,-0.717,-0.7149,-0.7182,-0.7235,-0.724,-0.717,-0.717,-0.7169,0,-0.7171,-0.7181,-0.7196,-0.7197,-0.7193,-0.7201,-0.7199,-0.7198,-0.7202,-0.7205,-0.7208,-0.7213,-0.7216,-0.722,-0.7211,-0.7198,-0.723,-0.7211,-0.7228,-0.7228,-0.7236,-0.7236,-0.7291,-0.7237,-0.7237,-0.7237,-0.7237,0,-0.7211,-0.7226,-0.7212,-0.7222,-0.7239,-0.7226,-0.7243,-0.724,-0.7239,-0.7248,-0.7234,-0.7243,-0.723,-0.7238,-0.7231,-0.7247,-0.7248,-0.7246,-0.7244,-0.7248,-0.7248,-0.7251,-0.7249,-0.7239,-0.7238,-0.7238,-0.7238,0,-0.7255,-0.7247,-0.7262,-0.7257,-0.7257,-0.7269,-0.7265,-0.7274,-0.7269,-0.728,-0.7282,-0.7274,-0.7283,-0.7274,-0.7282,-0.7277,-0.7299,-0.7293,-0.7299,-0.7298,-0.7316,-0.7315,-0.7375,-0.7383,-0.7324,-0.7325,-0.7325,0,-0.7282,-0.7293,-0.7289,-0.7294,-0.7294,-0.7302,-0.7306,-0.7294,-0.7299,-0.73,-0.7309,-0.7316,-0.7321,-0.7336,-0.7331,-0.7337,-0.7332,-0.7352,-0.7333,-0.7336,-0.7333,-0.7333,-0.7334,-0.7357,-0.7357,-0.7358,-0.7358,0,-0.7331,-0.7326,-0.7332,-0.7336,-0.7341,-0.7344,-0.7346,-0.7351,-0.734,-0.7346,-0.7354,-0.7358,-0.7366,-0.7374,-0.7378,-0.7378,-0.7367,-0.7365,-0.7369,-0.7373,-0.7377,-0.7376,-0.7311,-0.7363,-0.7363,-0.7363,-0.7362,-0.7362,-0.7367,-0.7377,-0.7376,-0.7383,-0.7383,-0.7386,-0.7394,-0.739,-0.7396,-0.7402,-0.7395,-0.7406,-0.7406,-0.7411,-0.7411,-0.742,-0.7411,-0.7417,-0.7419,-0.7421,-0.7424,-0.7375,-0.742,-0.742,-0.742,-0.742,-0.742,0,-0.7416,-0.7415,-0.7421,-0.7425,-0.7431,-0.7419,-0.7421,-0.7427,-0.7436,-0.7437,-0.7442,-0.7452,-0.746,-0.7455,-0.7462,-0.7469,-0.7465,-0.7472,-0.7471,-0.7472,-0.7431,-0.7427,-0.7475,-0.7475,-0.7475,-0.7475,-0.7475,-0.7475,-0.7442,-0.7458,-0.7453,-0.7469,-0.7467,-0.7478,-0.748,-0.7482,-0.7483,-0.7494,-0.75,-0.7497,-0.7496,-0.7503,-0.7509,-0.7508,-0.7511,-0.752,-0.7517,-0.748,-0.7474,-0.7469,-0.7465,-0.7521,-0.7521,-0.7557,-0.7557,-0.7557]},{"header":{"parameterUnit":"m.s-1","parameterCategory":1,"la1":30.2991,"la2":30.254,"lo1":-89.0895,"lo2":-89.0444,"dy":0.0017,"dx":0.0017,"nx":28,"ny":28,"refTime":"2025-09-15T21:00:00:Z","depth":0,"parameterNumber":3,"parameterNumberName":"V-component_of_WINDS"},"data":[0,0,0,0,0,0,0,0,0,0,0,0,0,0,0,0,0,0,0,0,0,0,0,0,0,0,0,0,0,0,0,0,0,0,0,0,0,0,0,0,0,0,0,0,0,0,0,0,0,0,0,0,0,0,0,0,0,0,3.2348,3.2348,0,3.2348,3.2348,3.2348,3.2294,3.2292,3.2291,3.229,3.2289,3.229,3.2292,0,0,0,0,0,0,0,0,0,0,0,0,0,3.2301,3.2302,3.2348,3.2348,3.2348,3.2348,3.2348,3.2348,3.2294,3.2292,3.2291,3.2289,3.2289,3.229,3.2292,0,0,0,0,0,0,0,0,0,0,0,0,0,3.2313,3.2303,3.2348,3.2321,3.2319,3.2348,3.2348,3.2348,3.2294,3.2292,3.229,3.2288,3.2288,3.229,3.2292,3.2347,0,0,3.2298,3.2299,0,0,0,0,0,0,0,0,3.2313,3.2315,3.2325,3.2323,3.2321,3.2319,3.2331,3.2348,3.2295,3.2304,3.229,3.2287,3.2301,3.2302,3.2306,3.2347,3.2347,3.2298,3.2299,3.23,3.2301,0,0,0,0,0,0,0,3.2312,3.2315,3.2348,3.2326,3.2323,3.2309,3.2308,3.2334,3.2314,3.2303,3.2299,3.23,3.2299,3.2304,3.2306,3.2347,3.2298,3.23,3.2301,3.2302,3.2431,3.2433,0,0,0,0,0,0,3.2315,3.2315,3.2348,3.2348,3.2311,3.2312,3.2311,3.2322,3.2314,3.2311,3.2301,3.2297,3.2302,3.2304,3.2306,3.2367,3.23,3.2302,3.2303,3.2428,3.2431,3.2434,0,0,0,0,0,0,3.2314,3.2319,3.2348,3.233,3.2333,3.2315,3.2327,3.2323,3.2328,3.2313,3.2309,3.2311,3.23,3.2303,3.2337,3.2367,3.2303,3.2305,3.2426,3.2429,3.2432,3.2493,0,0,0,0,0,0,3.2313,3.2319,3.2339,3.2331,3.2334,3.238,3.2329,3.2324,3.2331,3.2326,3.232,3.2317,3.2299,3.2334,3.2339,3.2368,3.2306,3.2423,3.2427,3.2431,3.2488,3.2498,3.2506,0,0,0,0,0,3.2312,3.2357,3.2341,3.2345,3.236,3.2381,3.2383,3.2361,3.2334,3.2354,3.2345,3.2317,3.2363,3.2338,3.2343,3.2373,3.2421,3.2426,3.2431,3.2484,3.2496,3.2506,0,0,0,0,0,0,3.2369,3.2355,3.2337,3.2381,3.2383,3.2372,3.2397,3.2375,3.2384,3.2378,3.2351,3.235,3.2388,3.2384,3.2356,3.2425,3.2387,3.2393,3.2426,3.2437,3.2446,3.2445,3.2308,0,0,0,0,0,3.2387,3.2406,3.2393,3.2433,3.2434,3.2416,3.2425,3.2408,3.2408,3.2409,3.2401,3.2403,3.2417,3.2427,3.244,3.2488,3.2485,3.2512,3.2521,3.2528,3.2533,3.2557,3.2568,3.245,3.245,3.245,0,0,3.2424,3.2419,3.2432,3.2444,3.2443,3.2463,3.2417,3.244,3.2454,3.2412,3.2443,3.2438,3.2438,3.2478,3.2496,3.2477,3.2566,3.2535,3.2541,3.2542,3.2563,3.2575,3.2584,3.2454,3.2453,3.2452,0,0,3.2501,3.2499,3.2531,3.2532,3.2531,3.2518,3.2526,3.2519,3.2514,3.2545,3.2513,3.253,3.2556,3.2556,3.256,3.2637,3.2612,3.2642,3.2689,3.2712,3.2722,3.273,3.2756,3.2765,3.2648,3.2648,3.2648,0,3.2546,3.2575,3.2551,3.2576,3.2581,3.2544,3.2576,3.2578,3.2582,3.2586,3.2564,3.2595,3.2593,3.2633,3.2651,3.2656,3.2663,3.2642,3.2722,3.273,3.2737,3.2762,3.2772,3.2651,3.2651,3.2651,3.265,0,3.263,3.265,3.2676,3.268,3.2689,3.2718,3.2698,3.2709,3.2692,3.2681,3.2713,3.2708,3.2719,3.2727,3.2711,3.2765,3.2752,3.2727,3.2688,3.2753,3.2775,3.2784,3.2656,3.2655,3.2654,3.2653,0,0,3.2742,3.2732,3.2742,3.2743,3.274,3.2754,3.2781,3.2791,3.2801,3.2805,3.2826,3.2849,3.2825,3.2829,3.2812,3.2833,3.2892,3.2805,3.2805,3.282,3.2949,3.2967,3.2978,3.2876,3.2878,3.2879,3.2949,0,3.2815,3.2859,3.2838,3.2885,3.2902,3.2867,3.289,3.289,3.2882,3.2895,3.2885,3.2901,3.287,3.2872,3.2891,3.2881,3.2918,3.2876,3.2894,3.2895,3.2893,3.299,3.3009,3.3075,3.2958,3.2959,3.296,0,3.2905,3.2912,3.296,3.2953,3.2959,3.298,3.2987,3.3001,3.3,3.2992,3.2997,3.2975,3.3,3.2963,3.2996,3.2968,3.2974,3.2971,3.2973,3.2972,3.293,3.299,3.3095,3.3105,3.2974,3.2973,3.2972,0,3.298,3.3002,3.3033,3.3035,3.3027,3.3042,3.304,3.3037,3.3044,3.305,3.3054,3.3064,3.3069,3.3077,3.3058,3.3033,3.3093,3.3055,3.3086,3.3087,3.3099,3.3098,3.3205,3.3107,3.3107,3.3106,3.3106,0,3.3062,3.3092,3.3066,3.3085,3.3117,3.3093,3.3126,3.312,3.3118,3.3135,3.3106,3.3122,3.3097,3.3111,3.3097,3.3126,3.3129,3.3122,3.3118,3.3124,3.3124,3.3126,3.312,3.3109,3.3108,3.3108,3.3107,0,3.315,3.3134,3.3165,3.3155,3.3153,3.3177,3.3169,3.3186,3.3175,3.3196,3.32,3.3183,3.3198,3.318,3.3194,3.3184,3.3223,3.3212,3.3223,3.3219,3.3251,3.3248,3.3361,3.3374,3.3269,3.327,3.3271,0,3.3203,3.3225,3.3217,3.3226,3.3225,3.3241,3.3247,3.3225,3.3233,3.3234,3.325,3.3263,3.3271,3.3296,3.3285,3.3295,3.3283,3.3323,3.3285,3.329,3.3282,3.328,3.3281,3.333,3.3331,3.3332,3.3333,0,3.3297,3.3288,3.3299,3.3307,3.3315,3.3321,3.3324,3.3333,3.331,3.332,3.3335,3.3341,3.3355,3.3367,3.3374,3.3371,3.3348,3.3345,3.3353,3.3358,3.3362,3.3359,3.3242,3.3342,3.3341,3.334,3.334,3.334,3.3368,3.3385,3.3382,3.3395,3.3395,3.3398,3.3413,3.3404,3.3416,3.3424,3.3411,3.3429,3.3427,3.3434,3.3433,3.3447,3.343,3.3441,3.3444,3.3447,3.3451,3.3362,3.3448,3.3448,3.3448,3.3448,3.3447,0,3.3459,3.3456,3.3468,3.3472,3.3482,3.346,3.3462,3.3472,3.3488,3.3488,3.3497,3.3513,3.3525,3.3515,3.3524,3.3537,3.3526,3.354,3.3537,3.3537,3.3466,3.3458,3.3548,3.3548,3.3548,3.3548,3.3548,3.3548,3.3508,3.3536,3.3526,3.3554,3.355,3.3566,3.3569,3.3572,3.3572,3.3591,3.36,3.3594,3.359,3.3598,3.3608,3.3605,3.3609,3.3626,3.3619,3.3552,3.3542,3.3533,3.3525,3.3627,3.3627,3.3688,3.3689,3.3689]}]]